Voltar ao catálogo

SL-8 DEB

AtivoLEO
NORAD 39691·DEBRIS·🇷🇺 Russia

Lançado Feb 12, 1991 de Plesetsk Cosmodrome

Loading…

Próximas Passagens (próximas 24 horas)

TLE

EnvelhecendoSource: Space-Track

Época: Sep 11, 2026, 13:15 UTC

1 39691U 91009DE  26254.55237391  .00000273  00000-0  25970-2 0  9998
2 39691  74.0563 100.1102 0140756 145.2880 215.7441 12.22888059530648

Acompanhe SL-8 DEB em tempo real com AllMySat

Download on the App Store